| time (UTC) | temp F | wind direction | speed knots | gust knots | rain 1hr in | rain 24hr in | rain mn in | humidity % | barometer mb |
| 20260507101015 | 49 | 0 | 0.9 | 7.8 | 0.00 | 0.25 | 0.00 | 60 | 1012.0 |
| 20260507100516 | 49 | 24 | 0.9 | 7.0 | 0.00 | 0.25 | 0.00 | 60 | 1011.8 |
| 20260507100032 | 49 | 16 | 0.9 | 7.0 | 0.00 | 0.25 | 0.00 | 60 | 1011.8 |
| 20260507095518 | 49 | 0 | 0.0 | 0.0 | 0.00 | 0.25 | 0.00 | 62 | 1011.7 |
| 20260507095013 | 49 | 0 | 0.0 | 0.0 | 0.00 | 0.25 | 0.00 | 63 | 1011.7 |
| 20260507094535 | 49 | 0 | 0.0 | 0.0 | 0.00 | 0.25 | 0.00 | 62 | 1011.7 |
| 20260507094020 | 49 | 0 | 0.0 | 0.0 | 0.00 | 0.25 | 0.00 | 62 | 1011.6 |
| 20260507093512 | 49 | 0 | 0.0 | 0.0 | 0.00 | 0.25 | 0.00 | 63 | 1011.6 |
| 20260507093030 | 49 | 0 | 0.0 | 0.0 | 0.00 | 0.25 | 0.00 | 62 | 1011.5 |
| 20260507092513 | 49 | 0 | 0.0 | 0.0 | 0.00 | 0.25 | 0.00 | 62 | 1011.4 |
| 20260507092013 | 49 | 0 | 0.0 | 0.0 | 0.00 | 0.25 | 0.00 | 61 | 1011.4 |
| 20260507091533 | 49 | 0 | 0.0 | 0.0 | 0.00 | 0.25 | 0.00 | 62 | 1011.4 |
| 20260507091013 | 49 | 0 | 0.0 | 0.0 | 0.00 | 0.25 | 0.00 | 61 | 1011.4 |
| 20260507090512 | 49 | 0 | 0.0 | 0.0 | 0.00 | 0.25 | 0.00 | 63 | 1011.4 |
| 20260507090029 | 49 | 0 | 0.0 | 0.0 | 0.00 | 0.25 | 0.00 | 63 | 1011.4 |
| 20260507085515 | 50 | 0 | 0.0 | 0.0 | 0.00 | 0.25 | 0.00 | 61 | 1011.4 |
| 20260507085015 | 50 | 0 | 0.0 | 0.0 | 0.00 | 0.25 | 0.00 | 62 | 1011.2 |
| 20260507084531 | 50 | 0 | 0.0 | 0.0 | 0.00 | 0.25 | 0.00 | 62 | 1011.3 |
| 20260507084018 | 50 | 0 | 0.0 | 0.0 | 0.00 | 0.25 | 0.00 | 62 | 1011.3 |
| 20260507083513 | 50 | 0 | 0.0 | 0.0 | 0.00 | 0.25 | 0.00 | 63 | 1011.4 |
| 20260507083032 | 50 | 0 | 0.0 | 0.0 | 0.00 | 0.25 | 0.00 | 62 | 1011.3 |
| 20260507082514 | 50 | 0 | 0.0 | 0.0 | 0.00 | 0.25 | 0.00 | 64 | 1011.3 |
| 20260507082012 | 50 | 0 | 0.0 | 0.0 | 0.00 | 0.25 | 0.00 | 63 | 1011.4 |
| 20260507081537 | 50 | 0 | 0.0 | 0.0 | 0.00 | 0.25 | 0.00 | 62 | 1011.3 |
| 20260507081012 | 50 | 0 | 0.0 | 8.7 | 0.00 | 0.25 | 0.00 | 64 | 1011.3 |
| 20260507080514 | 50 | 0 | 1.7 | 8.7 | 0.00 | 0.25 | 0.00 | 61 | 1011.3 |
| 20260507080031 | 50 | 0 | 0.0 | 0.0 | 0.00 | 0.25 | 0.00 | 61 | 1011.3 |
| 20260507075512 | 50 | 0 | 0.0 | 0.0 | 0.00 | 0.25 | 0.00 | 62 | 1011.4 |
| 20260507075012 | 50 | 0 | 0.0 | 0.0 | 0.00 | 0.25 | 0.00 | 61 | 1011.4 |
| 20260507074531 | 51 | 0 | 0.0 | 0.0 | 0.00 | 0.25 | 0.00 | 61 | 1011.5 |
| 20260507074013 | 51 | 0 | 0.0 | 7.8 | 0.00 | 0.25 | 0.00 | 60 | 1011.5 |
| 20260507073512 | 51 | 0 | 0.9 | 11.3 | 0.00 | 0.25 | 0.00 | 59 | 1011.5 |
| 20260507073031 | 51 | 337 | 0.0 | 11.3 | 0.00 | 0.25 | 0.00 | 58 | 1011.5 |
| 20260507072515 | 51 | 41 | 5.2 | 11.3 | 0.00 | 0.25 | 0.00 | 58 | 1011.5 |
| 20260507072014 | 51 | 313 | 1.7 | 8.7 | 0.00 | 0.25 | 0.00 | 60 | 1011.5 |
| 20260507071530 | 51 | 0 | 0.9 | 11.3 | 0.00 | 0.25 | 0.00 | 59 | 1011.5 |
| 20260507071012 | 51 | 0 | 0.0 | 12.2 | 0.00 | 0.25 | 0.00 | 59 | 1011.5 |
| 20260507070513 | 51 | 0 | 0.0 | 12.2 | 0.00 | 0.25 | 0.00 | 60 | 1011.5 |
| 20260507070044 | 52 | 352 | 1.7 | 10.4 | 0.00 | 0.25 | 0.00 | 60 | 1011.6 |
| 20260507065513 | 52 | 0 | 0.0 | 9.6 | 0.00 | 0.25 | 0.00 | 62 | 1011.6 |
| 20260507065015 | 52 | 0 | 4.3 | 13.0 | 0.00 | 0.25 | 0.00 | 62 | 1011.5 |
| 20260507064530 | 52 | 333 | 0.0 | 13.0 | 0.00 | 0.25 | 0.00 | 65 | 1011.3 |
| 20260507064015 | 52 | 347 | 1.7 | 11.3 | 0.00 | 0.25 | 0.00 | 66 | 1011.5 |
| 20260507063513 | 52 | 355 | 4.3 | 11.3 | 0.00 | 0.25 | 0.00 | 67 | 1011.5 |
| 20260507063035 | 52 | 355 | 1.7 | 8.7 | 0.00 | 0.25 | 0.00 | 70 | 1011.4 |
| 20260507062515 | 52 | 0 | 0.9 | 9.6 | 0.00 | 0.25 | 0.00 | 71 | 1011.4 |
| 20260507062015 | 52 | 5 | 3.5 | 10.4 | 0.00 | 0.25 | 0.00 | 72 | 1011.4 |
| 20260507061537 | 52 | 13 | 3.5 | 10.4 | 0.00 | 0.25 | 0.00 | 73 | 1011.6 |
| 20260507061015 | 52 | 340 | 4.3 | 9.6 | 0.00 | 0.25 | 0.00 | 74 | 1011.6 |
| 20260507060514 | 52 | 355 | 4.3 | 9.6 | 0.00 | 0.25 | 0.00 | 75 | 1011.6 |
| 20260507060032 | 52 | 352 | 3.5 | 8.7 | 0.00 | 0.25 | 0.00 | 77 | 1011.7 |
| 20260507055516 | 52 | 355 | 3.5 | 7.8 | 0.00 | 0.25 | 0.00 | 78 | 1011.6 |
| 20260507055013 | 52 | 360 | 0.9 | 7.0 | 0.00 | 0.25 | 0.00 | 79 | 1011.6 |
| 20260507054533 | 52 | 360 | 0.0 | 7.0 | 0.00 | 0.25 | 0.00 | 79 | 1011.7 |
| 20260507054012 | 53 | 355 | 4.3 | 7.8 | 0.00 | 0.25 | 0.00 | 79 | 1011.7 |
| 20260507053515 | 53 | 0 | 1.7 | 7.8 | 0.00 | 0.25 | 0.00 | 79 | 1011.7 |
| 20260507053031 | 53 | 5 | 4.3 | 7.8 | 0.00 | 0.25 | 0.00 | 79 | 1011.6 |
| 20260507052515 | 53 | 11 | 3.5 | 7.8 | 0.00 | 0.25 | 0.00 | 78 | 1011.7 |
| 20260507052012 | 53 | 355 | 2.6 | 10.4 | 0.00 | 0.25 | 0.00 | 78 | 1011.5 |
| 20260507051532 | 53 | 0 | 0.9 | 10.4 | 0.00 | 0.25 | 0.00 | 78 | 1011.7 |
| 20260507051016 | 53 | 5 | 2.6 | 7.8 | 0.00 | 0.25 | 0.00 | 79 | 1011.7 |
| 20260507050515 | 53 | 9 | 3.5 | 7.8 | 0.00 | 0.25 | 0.00 | 80 | 1011.7 |
| 20260507050036 | 53 | 0 | 0.0 | 0.0 | 0.00 | 0.25 | 0.00 | 81 | 1011.6 |
| 20260507045514 | 53 | 0 | 0.0 | 0.0 | 0.00 | 0.25 | 0.00 | 82 | 1011.5 |
| 20260507045015 | 53 | 0 | 0.0 | 0.0 | 0.00 | 0.25 | 0.00 | 82 | 1011.5 |
| 20260507044531 | 53 | 0 | 0.0 | 0.0 | 0.00 | 0.25 | 0.00 | 83 | 1011.5 |
| 20260507044015 | 53 | 0 | 0.0 | 0.0 | 0.00 | 0.25 | 0.00 | 84 | 1011.6 |
| 20260507043512 | 53 | 0 | 0.0 | 0.0 | 0.00 | 0.25 | 0.00 | 85 | 1011.7 |
| 20260507043030 | 53 | 0 | 0.0 | 0.0 | 0.00 | 0.25 | 0.00 | 86 | 1011.7 |
| 20260507042515 | 53 | 0 | 0.0 | 0.0 | 0.00 | 0.25 | 0.00 | 86 | 1011.6 |
| 20260507042019 | 53 | 0 | 0.0 | 0.0 | 0.00 | 0.25 | 0.00 | 87 | 1011.5 |
| 20260507041530 | 53 | 0 | 0.0 | 0.0 | 0.00 | 0.25 | 0.00 | 87 | 1011.3 |
| 20260507041015 | 53 | 0 | 0.0 | 0.0 | 0.00 | 0.25 | 0.00 | 87 | 1011.5 |
| 20260507040514 | 53 | 0 | 0.0 | 0.0 | 0.00 | 0.25 | 0.00 | 86 | 1011.5 |
| 20260507040033 | 53 | 0 | 0.0 | 0.0 | 0.00 | 0.25 | 0.00 | 86 | 1011.6 |
| 20260507035520 | 53 | 0 | 0.0 | 0.0 | 0.00 | 0.25 | 0.25 | 86 | 1011.5 |
| 20260507035014 | 53 | 0 | 0.0 | 0.0 | 0.00 | 0.25 | 0.25 | 86 | 1011.4 |
| 20260507034540 | 54 | 0 | 0.0 | 0.0 | 0.00 | 0.25 | 0.25 | 85 | 1011.5 |
| 20260507034013 | 54 | 0 | 0.0 | 0.0 | 0.00 | 0.25 | 0.25 | 85 | 1011.2 |
| 20260507033513 | 54 | 0 | 0.0 | 0.0 | 0.00 | 0.25 | 0.25 | 85 | 1011.2 |
| 20260507033043 | 54 | 0 | 0.0 | 0.0 | 0.00 | 0.25 | 0.25 | 84 | 1011.3 |
| 20260507032513 | 54 | 0 | 0.0 | 0.0 | 0.00 | 0.25 | 0.25 | 84 | 1011.3 |
| 20260507032012 | 54 | 0 | 0.0 | 0.0 | 0.00 | 0.25 | 0.25 | 83 | 1011.2 |
| 20260507031545 | 54 | 0 | 0.0 | 0.0 | 0.00 | 0.25 | 0.25 | 82 | 1010.9 |
| 20260507031016 | 55 | 0 | 0.0 | 0.0 | 0.00 | 0.25 | 0.25 | 80 | 1011.2 |
| 20260507030513 | 55 | 0 | 0.0 | 0.0 | 0.00 | 0.25 | 0.25 | 80 | 1010.8 |
| 20260507030033 | 55 | 0 | 0.0 | 0.0 | 0.00 | 0.25 | 0.25 | 80 | 1010.9 |
| 20260507025513 | 55 | 0 | 0.0 | 0.0 | 0.00 | 0.25 | 0.25 | 80 | 1011.2 |
| 20260507025018 | 55 | 0 | 0.0 | 0.0 | 0.00 | 0.25 | 0.25 | 80 | 1011.0 |
| 20260507024534 | 55 | 0 | 0.0 | 0.0 | 0.00 | 0.25 | 0.25 | 80 | 1011.1 |
| 20260507024015 | 55 | 0 | 0.0 | 0.0 | 0.00 | 0.25 | 0.25 | 81 | 1011.2 |
| 20260507023515 | 55 | 0 | 0.0 | 0.0 | 0.00 | 0.25 | 0.25 | 81 | 1011.2 |
| 20260507023034 | 55 | 0 | 0.0 | 0.0 | 0.00 | 0.25 | 0.25 | 81 | 1011.4 |
| 20260507022513 | 55 | 0 | 0.0 | 7.8 | 0.00 | 0.25 | 0.25 | 81 | 1011.2 |
| 20260507022014 | 55 | 0 | 0.0 | 7.8 | 0.00 | 0.25 | 0.25 | 81 | 1011.3 |
| 20260507021533 | 55 | 355 | 0.9 | 9.6 | 0.00 | 0.25 | 0.25 | 81 | 1011.1 |
| 20260507021015 | 56 | 0 | 0.0 | 9.6 | 0.00 | 0.25 | 0.25 | 82 | 1011.1 |
| 20260507020515 | 56 | 0 | 2.6 | 11.3 | 0.00 | 0.25 | 0.25 | 82 | 1011.0 |
| 20260507020034 | 56 | 31 | 4.3 | 11.3 | 0.00 | 0.25 | 0.25 | 82 | 1010.9 |
| 20260507015514 | 56 | 339 | 0.9 | 8.7 | 0.00 | 0.25 | 0.25 | 82 | 1010.9 |
| 20260507015012 | 56 | 0 | 1.7 | 12.2 | 0.00 | 0.25 | 0.25 | 82 | 1011.3 |
| 20260507014541 | 56 | 336 | 7.8 | 12.2 | 0.00 | 0.25 | 0.25 | 81 | 1011.2 |
| 20260507014012 | 56 | 339 | 7.8 | 12.2 | 0.00 | 0.25 | 0.25 | 81 | 1011.1 |
| 20260507013513 | 56 | 336 | 8.7 | 13.9 | 0.00 | 0.25 | 0.25 | 81 | 1011.2 |
| 20260507013038 | 57 | 346 | 7.8 | 13.9 | 0.00 | 0.25 | 0.25 | 82 | 1011.2 |
| 20260507012515 | 57 | 340 | 9.6 | 13.9 | 0.00 | 0.25 | 0.25 | 81 | 1011.3 |
| 20260507012014 | 57 | 338 | 7.0 | 11.3 | 0.00 | 0.25 | 0.25 | 82 | 1011.1 |
| 20260507011536 | 57 | 352 | 8.7 | 13.0 | 0.00 | 0.25 | 0.25 | 82 | 1011.2 |
| 20260507011013 | 58 | 344 | 9.6 | 13.0 | 0.00 | 0.25 | 0.25 | 82 | 1011.0 |
| 20260507010513 | 58 | 341 | 9.6 | 13.0 | 0.00 | 0.25 | 0.25 | 82 | 1011.1 |
| 20260507010040 | 58 | 355 | 1.7 | 12.2 | 0.00 | 0.25 | 0.25 | 82 | 1010.9 |
| 20260507005514 | 58 | 0 | 0.9 | 12.2 | 0.00 | 0.25 | 0.25 | 82 | 1010.6 |
| 20260507005019 | 58 | 0 | 1.7 | 12.2 | 0.00 | 0.25 | 0.25 | 81 | 1010.6 |
| 20260507004532 | 58 | 0 | 0.9 | 9.6 | 0.00 | 0.25 | 0.25 | 81 | 1010.7 |
| 20260507004015 | 58 | 355 | 4.3 | 9.6 | 0.00 | 0.25 | 0.25 | 81 | 1010.8 |
| 20260507003513 | 59 | 292 | 0.0 | 13.0 | 0.00 | 0.25 | 0.25 | 82 | 1010.7 |
| 20260507003031 | 59 | 0 | 2.6 | 13.0 | 0.00 | 0.25 | 0.25 | 82 | 1010.4 |
| 20260507002513 | 59 | 302 | 0.9 | 7.0 | 0.00 | 0.25 | 0.25 | 82 | 1010.3 |
| 20260507002014 | 59 | 0 | 0.0 | 0.0 | 0.00 | 0.25 | 0.25 | 83 | 1010.1 |
| 20260507001534 | 59 | 0 | 0.0 | 0.0 | 0.00 | 0.25 | 0.25 | 82 | 1010.0 |
| 20260507001011 | 59 | 0 | 0.0 | 0.0 | 0.00 | 0.25 | 0.25 | 82 | 1009.8 |
| 20260507000513 | 59 | 0 | 0.0 | 7.0 | 0.00 | 0.25 | 0.25 | 81 | 1009.8 |
| 20260507000030 | 59 | 0 | 0.0 | 12.2 | 0.00 | 0.25 | 0.25 | 82 | 1009.6 |
| 20260506235516 | 59 | 333 | 3.5 | 12.2 | 0.00 | 0.25 | 0.25 | 82 | 1009.7 |
| 20260506235015 | 59 | 335 | 7.8 | 12.2 | 0.00 | 0.25 | 0.25 | 82 | 1009.6 |
| 20260506234530 | 60 | 333 | 7.8 | 12.2 | 0.00 | 0.25 | 0.25 | 82 | 1009.4 |
| 20260506234015 | 60 | 355 | 8.7 | 12.2 | 0.00 | 0.25 | 0.25 | 82 | 1009.2 |
| 20260506233513 | 60 | 329 | 7.8 | 13.9 | 0.00 | 0.25 | 0.25 | 83 | 1009.4 |
| 20260506233030 | 60 | 348 | 9.6 | 13.9 | 0.00 | 0.25 | 0.25 | 83 | 1009.0 |
| 20260506232512 | 60 | 360 | 9.6 | 12.2 | 0.00 | 0.25 | 0.25 | 83 | 1008.7 |
| 20260506232014 | 60 | 337 | 7.0 | 11.3 | 0.00 | 0.25 | 0.25 | 83 | 1008.5 |
| 20260506231534 | 60 | 340 | 7.8 | 11.3 | 0.00 | 0.25 | 0.25 | 82 | 1008.6 |
| 20260506231013 | 60 | 15 | 7.0 | 11.3 | 0.00 | 0.25 | 0.25 | 82 | 1008.8 |
| 20260506230513 | 60 | 11 | 4.3 | 10.4 | 0.00 | 0.25 | 0.25 | 83 | 1008.8 |
| 20260506230032 | 60 | 342 | 4.3 | 10.4 | 0.00 | 0.25 | 0.25 | 83 | 1008.8 |
| 20260506225515 | 61 | 0 | 0.9 | 12.2 | 0.00 | 0.25 | 0.25 | 83 | 1008.8 |
| 20260506225020 | 61 | 0 | 0.9 | 13.0 | 0.00 | 0.25 | 0.25 | 83 | 1008.9 |
| 20260506224531 | 61 | 327 | 5.2 | 13.0 | 0.00 | 0.25 | 0.25 | 83 | 1008.8 |
| 20260506224015 | 61 | 327 | 4.3 | 14.8 | 0.00 | 0.25 | 0.25 | 83 | 1008.7 |
| 20260506223514 | 61 | 333 | 7.8 | 15.6 | 0.00 | 0.25 | 0.25 | 84 | 1008.5 |
| 20260506223032 | 61 | 329 | 10.4 | 15.6 | 0.00 | 0.25 | 0.25 | 84 | 1008.3 |
| 20260506222514 | 61 | 348 | 9.6 | 17.4 | 0.00 | 0.25 | 0.25 | 86 | 1008.2 |
| 20260506222013 | 62 | 360 | 12.2 | 17.4 | 0.00 | 0.25 | 0.25 | 85 | 1008.1 |
| 20260506221532 | 62 | 340 | 12.2 | 17.4 | 0.00 | 0.25 | 0.25 | 86 | 1008.2 |
| 20260506221012 | 62 | 13 | 9.6 | 16.5 | 0.00 | 0.25 | 0.25 | 86 | 1008.2 |
| 20260506220514 | 62 | 342 | 11.3 | 16.5 | 0.00 | 0.25 | 0.25 | 86 | 1008.2 |
| 20260506220032 | 63 | 341 | 7.8 | 14.8 | 0.00 | 0.25 | 0.25 | 87 | 1008.1 |
| 20260506215513 | 63 | 344 | 6.1 | 18.2 | 0.00 | 0.25 | 0.25 | 87 | 1008.0 |
| 20260506215015 | 64 | 329 | 8.7 | 18.2 | 0.00 | 0.25 | 0.25 | 86 | 1007.9 |
| 20260506214530 | 64 | 316 | 9.6 | 18.2 | 0.00 | 0.25 | 0.25 | 86 | 1007.8 |
| 20260506214015 | 64 | 308 | 7.8 | 11.3 | 0.00 | 0.25 | 0.25 | 87 | 1007.5 |
| 20260506213513 | 64 | 340 | 5.2 | 8.7 | 0.00 | 0.25 | 0.25 | 88 | 1007.4 |
| 20260506213032 | 65 | 346 | 4.3 | 8.7 | 0.00 | 0.25 | 0.25 | 90 | 1007.4 |
| 20260506212513 | 65 | 355 | 2.6 | 7.8 | 0.00 | 0.25 | 0.25 | 90 | 1007.4 |
| 20260506212015 | 65 | 315 | 3.5 | 7.8 | 0.00 | 0.25 | 0.25 | 90 | 1007.2 |
| 20260506211530 | 65 | 0 | 2.6 | 7.0 | 0.00 | 0.25 | 0.25 | 91 | 1007.1 |
| 20260506211014 | 65 | 342 | 0.0 | 5.2 | 0.00 | 0.25 | 0.25 | 92 | 1007.1 |
| 20260506210513 | 65 | 323 | 2.6 | 5.2 | 0.00 | 0.25 | 0.25 | 92 | 1007.1 |
| 20260506210034 | 64 | 309 | 0.9 | 3.5 | 0.00 | 0.25 | 0.25 | 93 | 1007.0 |
| 20260506205512 | 64 | 0 | 0.0 | 7.0 | 0.00 | 0.25 | 0.25 | 92 | 1007.0 |
| 20260506205014 | 64 | 0 | 2.6 | 7.0 | 0.00 | 0.25 | 0.25 | 92 | 1006.9 |
| 20260506204531 | 64 | 290 | 1.7 | 7.0 | 0.00 | 0.25 | 0.25 | 93 | 1006.9 |
| 20260506204014 | 64 | 304 | 1.7 | 4.3 | 0.00 | 0.25 | 0.25 | 94 | 1006.9 |
| 20260506203515 | 64 | 0 | 0.0 | 0.0 | 0.00 | 0.25 | 0.25 | 94 | 1006.8 |
| 20260506203038 | 64 | 0 | 0.0 | 0.9 | 0.00 | 0.25 | 0.25 | 94 | 1006.7 |
| 20260506202513 | 64 | 0 | 0.0 | 0.9 | 0.00 | 0.25 | 0.25 | 93 | 1006.8 |
| 20260506202017 | 64 | 0 | 0.0 | 3.5 | 0.00 | 0.25 | 0.25 | 93 | 1006.8 |
| 20260506201537 | 64 | 0 | 0.0 | 4.3 | 0.00 | 0.25 | 0.25 | 93 | 1006.7 |
| 20260506201014 | 64 | 213 | 0.9 | 5.2 | 0.00 | 0.25 | 0.25 | 94 | 1006.7 |
| 20260506200514 | 64 | 207 | 0.9 | 6.1 | 0.00 | 0.25 | 0.25 | 94 | 1006.8 |
| 20260506200035 | 64 | 206 | 0.0 | 6.1 | 0.00 | 0.25 | 0.25 | 95 | 1006.8 |
| 20260506195516 | 64 | 0 | 0.0 | 2.6 | 0.00 | 0.25 | 0.25 | 95 | 1006.8 |
| 20260506195015 | 63 | 0 | 0.0 | 2.6 | 0.00 | 0.25 | 0.25 | 95 | 1006.8 |
| 20260506194531 | 63 | 0 | 0.0 | 2.6 | 0.00 | 0.25 | 0.25 | 95 | 1006.9 |
| 20260506194019 | 63 | 0 | 0.0 | 0.0 | 0.00 | 0.25 | 0.25 | 95 | 1007.0 |
| 20260506193512 | 63 | 0 | 0.0 | 0.0 | 0.00 | 0.25 | 0.25 | 95 | 1007.1 |
| 20260506193030 | 63 | 0 | 0.0 | 0.9 | 0.00 | 0.25 | 0.25 | 95 | 1007.1 |
| 20260506192515 | 63 | 0 | 0.0 | 0.9 | 0.00 | 0.25 | 0.25 | 95 | 1007.2 |
| 20260506192017 | 63 | 0 | 0.0 | 0.0 | 0.00 | 0.25 | 0.25 | 95 | 1007.2 |
| 20260506191532 | 63 | 0 | 0.0 | 3.5 | 0.00 | 0.25 | 0.25 | 95 | 1007.2 |
| 20260506191014 | 63 | 0 | 0.0 | 4.3 | 0.00 | 0.25 | 0.25 | 95 | 1007.2 |
| 20260506190513 | 63 | 0 | 0.9 | 4.3 | 0.00 | 0.25 | 0.25 | 95 | 1007.2 |
| 20260506190038 | 63 | 0 | 0.9 | 4.3 | 0.00 | 0.25 | 0.25 | 95 | 1007.2 |
| 20260506185514 | 63 | 209 | 0.0 | 4.3 | 0.00 | 0.25 | 0.25 | 96 | 1007.2 |
| 20260506185014 | 63 | 0 | 0.9 | 4.3 | 0.00 | 0.25 | 0.25 | 96 | 1007.2 |
| 20260506184543 | 63 | 0 | 0.0 | 0.0 | 0.00 | 0.25 | 0.25 | 96 | 1007.2 |
| 20260506184018 | 62 | 0 | 0.0 | 0.0 | 0.01 | 0.25 | 0.25 | 97 | 1007.4 |
| 20260506183513 | 62 | 0 | 0.0 | 0.0 | 0.01 | 0.25 | 0.25 | 97 | 1007.4 |
| 20260506183033 | 62 | 0 | 0.0 | 2.6 | 0.01 | 0.25 | 0.25 | 96 | 1007.5 |
| 20260506182512 | 62 | 0 | 0.0 | 2.6 | 0.01 | 0.25 | 0.25 | 97 | 1007.5 |
| 20260506182013 | 62 | 221 | 0.0 | 1.7 | 0.01 | 0.25 | 0.25 | 97 | 1007.4 |
| 20260506181530 | 62 | 0 | 0.0 | 4.3 | 0.01 | 0.25 | 0.25 | 97 | 1007.4 |
| 20260506181015 | 62 | 0 | 0.0 | 4.3 | 0.01 | 0.25 | 0.25 | 97 | 1007.5 |
| 20260506180513 | 61 | 0 | 0.0 | 4.3 | 0.02 | 0.25 | 0.25 | 97 | 1007.5 |
| 20260506180030 | 61 | 0 | 0.9 | 4.3 | 0.02 | 0.25 | 0.25 | 97 | 1007.5 |
| 20260506175513 | 61 | 0 | 0.9 | 4.3 | 0.02 | 0.25 | 0.25 | 97 | 1007.6 |
| 20260506175017 | 61 | 0 | 0.0 | 4.3 | 0.02 | 0.25 | 0.25 | 97 | 1007.6 |
| 20260506174529 | 60 | 193 | 0.9 | 4.3 | 0.01 | 0.24 | 0.24 | 97 | 1007.5 |
| 20260506174013 | 60 | 0 | 0.0 | 0.0 | 0.02 | 0.24 | 0.24 | 96 | 1007.6 |
| 20260506173513 | 60 | 0 | 0.0 | 0.0 | 0.02 | 0.24 | 0.24 | 96 | 1007.6 |
| 20260506173040 | 60 | 0 | 0.0 | 0.0 | 0.02 | 0.24 | 0.24 | 96 | 1007.6 |
| 20260506172512 | 60 | 0 | 0.0 | 0.0 | 0.02 | 0.24 | 0.24 | 96 | 1007.6 |
| 20260506172012 | 60 | 0 | 0.0 | 0.0 | 0.02 | 0.24 | 0.24 | 96 | 1007.7 |
| 20260506171532 | 60 | 0 | 0.0 | 0.0 | 0.02 | 0.24 | 0.24 | 96 | 1007.7 |
| 20260506171014 | 60 | 0 | 0.0 | 0.0 | 0.02 | 0.24 | 0.24 | 96 | 1007.7 |
| 20260506170514 | 60 | 0 | 0.0 | 0.0 | 0.01 | 0.23 | 0.23 | 96 | 1007.6 |
| 20260506170036 | 60 | 0 | 0.0 | 0.0 | 0.01 | 0.23 | 0.23 | 96 | 1007.7 |
| 20260506165514 | 60 | 0 | 0.0 | 0.0 | 0.01 | 0.23 | 0.23 | 96 | 1007.7 |
| 20260506165014 | 60 | 0 | 0.0 | 0.9 | 0.01 | 0.23 | 0.23 | 96 | 1007.6 |
| 20260506164533 | 60 | 0 | 0.0 | 0.9 | 0.01 | 0.23 | 0.23 | 96 | 1007.6 |
| 20260506164016 | 60 | 0 | 0.0 | 0.0 | 0.00 | 0.22 | 0.22 | 96 | 1007.7 |
| 20260506163512 | 60 | 0 | 0.0 | 0.0 | 0.00 | 0.22 | 0.22 | 95 | 1007.7 |
| 20260506163036 | 60 | 0 | 0.0 | 0.0 | 0.00 | 0.22 | 0.22 | 95 | 1007.7 |
| 20260506162517 | 60 | 0 | 0.0 | 0.0 | 0.00 | 0.22 | 0.22 | 95 | 1007.7 |
| 20260506162012 | 60 | 0 | 0.0 | 0.0 | 0.00 | 0.22 | 0.22 | 95 | 1007.7 |
| 20260506161532 | 60 | 0 | 0.0 | 5.2 | 0.00 | 0.22 | 0.22 | 95 | 1007.8 |
| 20260506161013 | 60 | 0 | 0.0 | 5.2 | 0.00 | 0.22 | 0.22 | 95 | 1007.7 |
| 20260506160515 | 60 | 0 | 0.0 | 5.2 | 0.00 | 0.22 | 0.22 | 95 | 1007.6 |
| 20260506160032 | 60 | 0 | 0.0 | 0.0 | 0.00 | 0.22 | 0.22 | 95 | 1007.6 |
| 20260506155514 | 60 | 0 | 0.0 | 0.0 | 0.01 | 0.22 | 0.22 | 95 | 1007.7 |
| 20260506155015 | 60 | 0 | 0.0 | 0.0 | 0.01 | 0.22 | 0.22 | 95 | 1007.6 |
| 20260506154532 | 60 | 0 | 0.0 | 5.2 | 0.02 | 0.22 | 0.22 | 95 | 1007.7 |
| 20260506154016 | 60 | 0 | 0.9 | 5.2 | 0.03 | 0.22 | 0.22 | 95 | 1007.6 |
| 20260506153514 | 60 | 0 | 0.0 | 6.1 | 0.04 | 0.22 | 0.22 | 95 | 1007.6 |
| 20260506153030 | 60 | 0 | 0.0 | 6.1 | 0.05 | 0.22 | 0.22 | 95 | 1007.6 |
| 20260506152514 | 60 | 0 | 0.0 | 6.1 | 0.07 | 0.22 | 0.22 | 95 | 1007.6 |
| 20260506152014 | 60 | 0 | 0.0 | 3.5 | 0.08 | 0.22 | 0.22 | 95 | 1007.5 |
| 20260506151531 | 60 | 0 | 0.0 | 7.8 | 0.09 | 0.22 | 0.22 | 95 | 1007.4 |
| 20260506151018 | 60 | 0 | 0.9 | 7.8 | 0.10 | 0.22 | 0.22 | 95 | 1007.3 |
| 20260506150513 | 59 | 0 | 0.9 | 7.0 | 0.10 | 0.22 | 0.22 | 95 | 1007.4 |
| 20260506150030 | 59 | 0 | 0.0 | 6.1 | 0.10 | 0.22 | 0.22 | 95 | 1007.6 |
| 20260506145514 | 59 | 0 | 1.7 | 6.1 | 0.10 | 0.21 | 0.21 | 95 | 1007.7 |
| 20260506145013 | 59 | 0 | 0.9 | 6.1 | 0.10 | 0.21 | 0.21 | 95 | 1007.7 |
| 20260506144534 | 59 | 0 | 0.0 | 6.1 | 0.09 | 0.20 | 0.20 | 95 | 1007.8 |
| 20260506144012 | 59 | 0 | 0.9 | 7.8 | 0.09 | 0.19 | 0.19 | 94 | 1007.8 |
| 20260506143513 | 59 | 0 | 0.0 | 9.6 | 0.09 | 0.18 | 0.18 | 94 | 1008.0 |
| 20260506143033 | 59 | 215 | 1.7 | 9.6 | 0.08 | 0.17 | 0.17 | 94 | 1008.0 |
| 20260506142519 | 60 | 0 | 0.9 | 6.1 | 0.06 | 0.15 | 0.15 | 94 | 1008.1 |
| 20260506142014 | 60 | 0 | 0.0 | 0.0 | 0.05 | 0.14 | 0.14 | 94 | 1008.1 |
| 20260506141533 | 60 | 0 | 0.0 | 0.0 | 0.05 | 0.13 | 0.13 | 94 | 1008.1 |
| 20260506141018 | 60 | 0 | 0.0 | 0.0 | 0.04 | 0.12 | 0.12 | 94 | 1008.1 |
| 20260506140512 | 60 | 0 | 0.0 | 3.5 | 0.05 | 0.12 | 0.12 | 94 | 1007.9 |
| 20260506140032 | 60 | 0 | 0.0 | 7.0 | 0.05 | 0.12 | 0.12 | 94 | 1007.9 |
| 20260506135513 | 60 | 190 | 0.0 | 7.0 | 0.04 | 0.11 | 0.11 | 94 | 1007.8 |
| 20260506135013 | 60 | 192 | 0.0 | 3.5 | 0.04 | 0.11 | 0.11 | 93 | 1007.7 |
| 20260506134532 | 60 | 0 | 0.0 | 3.5 | 0.04 | 0.11 | 0.11 | 93 | 1007.8 |
| 20260506134017 | 60 | 220 | 0.0 | 3.5 | 0.03 | 0.10 | 0.10 | 93 | 1007.7 |
| 20260506133516 | 60 | 0 | 0.0 | 4.3 | 0.03 | 0.09 | 0.09 | 93 | 1007.8 |
| 20260506133032 | 60 | 202 | 0.9 | 4.3 | 0.03 | 0.09 | 0.09 | 92 | 1007.8 |
| 20260506132522 | 60 | 0 | 0.0 | 0.0 | 0.04 | 0.09 | 0.09 | 92 | 1007.9 |
| 20260506132013 | 60 | 0 | 0.0 | 0.0 | 0.04 | 0.09 | 0.09 | 92 | 1007.9 |
| 20260506131544 | 60 | 0 | 0.0 | 1.7 | 0.04 | 0.08 | 0.08 | 92 | 1007.9 |
| 20260506131014 | 60 | 0 | 0.0 | 1.7 | 0.04 | 0.07 | 0.07 | 91 | 1008.1 |
| 20260506130514 | 60 | 0 | 0.0 | 4.3 | 0.04 | 0.07 | 0.07 | 91 | 1008.0 |
| 20260506130037 | 60 | 0 | 0.0 | 4.3 | 0.05 | 0.07 | 0.07 | 91 | 1007.8 |
| 20260506125513 | 60 | 207 | 0.0 | 4.3 | 0.05 | 0.07 | 0.07 | 91 | 1007.9 |
| 20260506125013 | 60 | 0 | 0.0 | 0.0 | 0.05 | 0.07 | 0.07 | 90 | 1008.0 |
| 20260506124529 | 60 | 0 | 0.0 | 0.0 | 0.06 | 0.07 | 0.07 | 90 | 1007.9 |
| 20260506124014 | 60 | 0 | 0.0 | 0.0 | 0.06 | 0.07 | 0.07 | 89 | 1008.1 |
| 20260506123513 | 60 | 0 | 0.0 | 1.7 | 0.05 | 0.06 | 0.06 | 88 | 1008.1 |
| 20260506123031 | 60 | 0 | 0.0 | 5.2 | 0.05 | 0.06 | 0.06 | 88 | 1008.2 |
| 20260506122513 | 60 | 0 | 0.0 | 5.2 | 0.04 | 0.05 | 0.05 | 87 | 1008.3 |
| 20260506122013 | 61 | 0 | 0.0 | 2.6 | 0.04 | 0.05 | 0.05 | 86 | 1008.2 |
| 20260506121530 | 61 | 0 | 0.0 | 1.7 | 0.04 | 0.04 | 0.04 | 85 | 1008.3 |
| 20260506121013 | 61 | 0 | 0.0 | 1.7 | 0.03 | 0.03 | 0.03 | 84 | 1008.4 |
| 20260506120515 | 62 | 0 | 0.0 | 1.7 | 0.03 | 0.03 | 0.03 | 83 | 1008.4 |
| 20260506120033 | 62 | 0 | 0.0 | 0.0 | 0.02 | 0.02 | 0.02 | 82 | 1008.5 |
| 20260506115516 | 62 | 0 | 0.0 | 0.0 | 0.02 | 0.02 | 0.02 | 81 | 1008.4 |
| 20260506115013 | 62 | 0 | 0.0 | 0.0 | 0.02 | 0.02 | 0.02 | 80 | 1008.4 |
| 20260506114534 | 62 | 0 | 0.0 | 5.2 | 0.01 | 0.01 | 0.01 | 80 | 1008.3 |
| 20260506114013 | 63 | 0 | 0.0 | 5.2 | 0.01 | 0.01 | 0.01 | 79 | 1008.2 |
| 20260506113514 | 63 | 0 | 0.0 | 0.0 | 0.01 | 0.01 | 0.01 | 78 | 1008.1 |
| 20260506113030 | 63 | 0 | 0.0 | 0.0 | 0.01 | 0.01 | 0.01 | 77 | 1007.9 |
| 20260506112513 | 63 | 0 | 0.0 | 0.0 | 0.01 | 0.01 | 0.01 | 76 | 1007.8 |
| 20260506112013 | 63 | 0 | 0.0 | 0.0 | 0.01 | 0.01 | 0.01 | 75 | 1007.9 |
| 20260506111531 | 64 | 0 | 0.0 | 3.5 | 0.00 | 0.00 | 0.00 | 75 | 1007.9 |
| 20260506111014 | 64 | 0 | 0.0 | 7.0 | 0.00 | 0.00 | 0.00 | 74 | 1007.8 |
| 20260506110513 | 64 | 0 | 0.0 | 7.0 | 0.00 | 0.00 | 0.00 | 74 | 1007.6 |
| 20260506110033 | 64 | 215 | 0.0 | 5.2 | 0.00 | 0.00 | 0.00 | 72 | 1007.6 |
| 20260506105513 | 65 | 0 | 0.0 | 8.7 | 0.00 | 0.00 | 0.00 | 71 | 1007.6 |
| 20260506105017 | 65 | 0 | 0.9 | 8.7 | 0.00 | 0.00 | 0.00 | 70 | 1007.4 |
| 20260506104533 | 65 | 0 | 0.0 | 5.2 | 0.00 | 0.00 | 0.00 | 69 | 1007.4 |
| 20260506104013 | 65 | 0 | 0.0 | 5.2 | 0.00 | 0.00 | 0.00 | 67 | 1007.4 |
| 20260506103515 | 65 | 0 | 0.9 | 5.2 | 0.00 | 0.00 | 0.00 | 67 | 1007.3 |
| 20260506103038 | 65 | 0 | 0.0 | 8.7 | 0.00 | 0.00 | 0.00 | 67 | 1007.3 |
| 20260506102516 | 65 | 0 | 2.6 | 8.7 | 0.00 | 0.00 | 0.00 | 66 | 1007.2 |
| 20260506102015 | 65 | 0 | 1.7 | 7.0 | 0.00 | 0.00 | 0.00 | 66 | 1007.1 |
| 20260506101543 | 65 | 250 | 1.7 | 5.2 | 0.00 | 0.00 | 0.00 | 66 | 1007.0 |